Vertical_Velocity
3 -0 1 -2 -12 -8 1 2 2 -2 -1 9 -1 -15 -1 3 4 -1 -7 -4 -6 1 -5 -3 -5 3 -2 1 -1 -3 -3 -3 -3 -2 -1 -1 -3 7 8 6 7 4 0 -0 2 1 1 -1 -1
1 -2 -0 -1 -10 -2 4 1 0 6 -1 6 -4 5 -4 6 2 -3 -4 4 6 -1 3 -0 3 1 3 -2 -1 -2 0 -0 -2 -2 -1 -1 -2 0 -1 5 7 4 4 2 3 1 1 2 2
-0 -0 -2 -4 -1 -0 -0 -0 -0 5 1 3 -2 -0 1 2 -0 -2 2 -1 3 2 3 1 2 -13 -1 3 2 -2 -1 0 -1 -1 1 -2 -1 -3 -4 -2 -0 7 7 5 8 5 3 3 4
-0 0 1 -9 1 2 0 0 1 1 3 -0 4 -4 -3 4 -0 -0 1 2 -2 1 -5 0 -9 -0 3 2 -3 -2 -1 -4 -5 -7 -0 -0 -1 1 -3 -1 -1 -2 2 3 3 3 -0 3 4
-1 0 -4 -2 2 1 1 4 1 0 1 4 1 2 -2 1 1 5 5 6 8 3 -2 -3 -2 -0 -4 -3 -2 -1 1 -1 3 -0 2 -5 -1 1 3 -2 -2 -0 -0 -1 1 4 6 5 -1
-2 -1 -3 -0 2 1 2 2 0 -1 6 7 -6 -1 6 5 6 10 7 1 -1 1 0 1 3 3 0 1 -1 -1 -2 0 0 1 -1 -1 2 2 -4 -2 -1 -2 2 -2 -3 -2 1 2 4
-4 -3 1 -0 0 -0 1 6 0 2 1 1 3 -2 9 -2 6 -0 -2 3 1 2 -1 -3 -6 -4 -1 -3 -2 -3 -2 -5 -4 -2 -1 -5 -4 1 -6 5 -4 -3 2 1 1 -6 0 3 2
-2 -7 -1 0 0 2 1 -1 2 -2 4 5 4 1 0 4 1 2 5 1 -1 -3 -0 -5 -0 1 1 -1 -7 -4 -1 0 3 -2 -4 1 0 1 2 -2 4 6 1 1 -1 1 0 -2 0
2 -8 -1 0 -1 -0 5 -2 3 7 -9 -5 1 -2 6 3 2 -4 -14 -13 -10 -6 -3 -2 -3 -6 -10 -9 -4 -1 -1 -3 -5 0 1 2 1 -2 -1 2 -4 1 -3 -0 1 -1 1 3 -6
-8 -4 -0 1 0 0 2 -4 -1 -7 0 2 -4 1 -5 -7 -7 -3 -1 -0 -1 -5 -7 -9 -10 -7 -12 -9 -10 -7 -8 -1 2 -3 -3 -1 -2 -1 -2 -2 -0 -0 -2 3 2 -1 -1 1 2
2 -2 0 6 -3 -2 -1 -5 -0 -0 -1 4 2 1 1 2 2 -4 -6 -4 1 -1 -4 -6 -3 -3 -0 -4 -3 -7 -8 -7 -7 -1 -1 -3 -3 -5 -1 -3 -1 1 0 -3 2 0 -1 -1 -1
-9 1 -0 4 5 -2 -1 -0 1 -3 6 2 1 5 -0 -4 -4 0 -2 -2 -2 -3 -0 -2 -2 0 -4 -2 4 4 -0 -5 -11 -13 -9 -7 -2 -5 -2 -3 -4 1 -1 -1 -1 1 -1 1 1
-5 1 -1 4 -0 -0 -2 2 2 4 5 5 1 0 -1 -1 -1 -0 -0 -0 0 -6 -1 -5 -2 -5 -1 3 -3 -5 -4 -2 -0 -2 -8 3 -2 -4 -3 -2 -4 -4 2 4 -4 0 -0 2 1
-1 -2 1 5 2 -1 -11 5 -4 4 8 -6 -1 -1 -2 -3 -3 -7 -3 -2 -1 -3 -2 3 1 -1 4 -1 2 -1 -2 -4 -4 -2 -3 -7 -1 1 -2 -4 -3 -0 -0 -0 2 4 8 -3 -2
1 -4 0 4 1 -2 -6 -8 -0 6 -4 1 -4 -5 -3 -0 -1 2 1 -1 8 5 2 -7 -4 -4 -2 -1 -4 -5 -2 1 1 -0 -1 1 0 -7 -2 1 1 3 -2 -1 -3 -4 3 4 2
-3 -3 -0 -3 1 1 -4 1 3 0 -1 -1 -2 -3 -0 -2 2 0 2 1 1 -4 -7 -3 -0 2 3 -1 -1 -3 0 1 -1 -0 -0 -0 -1 1 -3 -6 -6 -1 3 -2 1 3 9 2 1
-2 -1 -0 2 3 -1 -5 1 3 6 -2 -2 -2 1 -3 -3 -9 -3 -3 2 -2 4 -2 1 -5 -6 -3 -3 -4 0 1 -2 -3 -3 1 0 1 -1 -1 3 1 3 1 -0 -1 -1 4 -1 2
-2 -1 -0 -0 2 -4 1 2 1 5 -5 0 2 -5 -1 -3 -3 -1 -3 -3 -3 -7 4 1 3 7 1 -3 -5 -6 -5 -5 -4 -3 -2 -0 -1 1 0 -6 -2 2 1 1 -0 -3 7 -3 14
-0 -1 -0 -1 1 -7 0 0 0 3 -4 -4 -3 -2 -9 -4 -4 2 1 -3 1 4 -1 -2 -3 -8 -6 -7 -6 -5 -3 -5 -4 -6 -7 -6 -3 -1 0 1 -3 -1 -1 -2 0 -2 2 0 0
-0 -1 0 -1 1 -9 0 1 0 -0 1 3 2 -5 -1 -4 -1 0 -0 -1 5 2 -1 1 -3 -5 -0 0 2 3 1 -3 -2 -4 -4 -2 -2 -2 -2 2 -1 -5 -1 -1 -2 2 -5 -2 6
-1 -2 0 -4 1 -2 -3 -1 -2 -3 -2 -0 -1 1 3 7 -2 -7 -5 -0 -1 -2 -5 -6 -1 2 2 0 -3 -2 -1 -0 -0 3 1 -2 -0 -2 0 -2 1 2 3 -0 -1 5 5 0 -2
0 -1 2 1 -1 -4 -2 -2 -1 -1 -3 -3 -2 -2 -4 -3 -1 1 -3 -4 -2 -3 -2 -1 -3 -2 2 -1 -2 1 4 1 1 -0 -2 -2 0 -1 0 1 -0 1 2 -2 0 6 5 5 -3
-7 3 0 -1 -0 -3 3 -8 -9 -0 -4 -3 -6 -2 0 1 1 -5 -1 -2 2 2 -0 3 -3 -2 -3 -0 4 -1 -3 2 0 -4 -2 -0 -0 -2 -2 1 0 -1 -1 2 -1 0 2 -1 6
1 -3 -3 -1 -2 -4 -0 -4 -4 0 3 -4 -6 -4 0 -0 -2 -1 4 -2 4 3 2 1 -6 -2 -3 3 0 3 1 -0 2 -1 1 -1 -2 -3 -3 0 2 -0 2 -1 -4 1 1 3 4
-6 -6 -5 -7 -8 -4 -0 -6 -6 -2 -1 4 3 -2 -0 0 -4 -4 -4 -8 -8 -7 -4 -2 -6 -9 -2 -0 1 -0 3 2 1 1 -1 -1 -3 -1 -1 2 3 2 2 -4 6 -1 1 -5 1
1 -2 -4 -1 -1 -3 -2 -1 -6 -1 -0 6 2 7 3 -2 0 1 -1 1 -1 1 -6 -1 -6 -4 -1 -3 -3 0 6 3 2 1 1 1 4 2 2 4 5 2 -1 15 5 -3 -4 1 3
-5 -6 -1 -2 -1 -2 -2 -5 -3 -7 -7 -7 -4 -3 -2 -2 -4 0 -1 -1 0 -1 -2 -5 -7 -1 -1 0 2 -1 1 -2 2 3 4 2 3 -1 6 -3 3 -2 1 -5 8 5 -3 -0 -2
-8 -2 -7 -5 -6 -3 -4 -0 -4 -6 -4 -3 -7 -2 -2 -1 -3 0 1 -0 1 -0 -1 -1 -3 2 2 3 7 1 -2 3 4 4 4 3 3 -1 -2 -1 -1 -0 -0 6 -6 3 3 1 -3
-9 -4 -5 -7 -3 -4 -1 -5 1 -1 2 2 -0 1 0 -1 -3 -0 -2 -1 1 4 -0 -1 -1 -2 -8 -4 4 -5 -2 2 1 1 1 -1 4 0 1 1 -0 1 -3 -2 4 1 -3 -1 5
-0 0 -1 -7 -8 -1 -4 -13 -1 3 3 3 -0 2 -1 3 -1 1 -2 -0 -2 5 -3 -3 -2 -2 2 5 0 -0 -3 5 -1 -1 2 2 -3 6 -2 0 -1 0 -0 -2 4 1 -4 3 0
Height
1529 1528 1527 1527 1536 1539 1554 1557 1547 1543 1547 1560 1546 1550 1568 1573 1576 1582 1580 1577 1574 1572 1568 1565 1561 1559 1555 1551 1549 1547 1544 1542 1540 1539 1537 1536 1533 1531 1530 1529 1528 1527 1527 1526 1525 1525 1525 1525 1526
1529 1529 1528 1527 1549 1556 1563 1564 1563 1557 1555 1553 1555 1563 1564 1577 1578 1580 1580 1578 1576 1573 1570 1566 1564 1560 1557 1553 1550 1547 1544 1542 1540 1538 1536 1534 1532 1530 1528 1526 1526 1525 1525 1524 1524 1523 1522 1522 1523
1529 1528 1529 1536 1556 1572 1573 1568 1564 1560 1556 1553 1559 1565 1572 1580 1582 1582 1580 1578 1576 1573 1569 1566 1563 1559 1557 1554 1550 1547 1544 1541 1539 1537 1536 1533 1531 1529 1526 1525 1524 1522 1521 1521 1520 1520 1519 1519 1520
1529 1530 1535 1554 1571 1573 1572 1570 1560 1554 1555 1556 1563 1572 1581 1582 1582 1581 1580 1577 1575 1573 1569 1567 1563 1561 1556 1553 1551 1548 1545 1541 1538 1535 1535 1531 1530 1528 1525 1524 1521 1520 1518 1518 1517 1517 1516 1516 1517
1529 1531 1549 1569 1575 1576 1575 1572 1564 1559 1565 1565 1565 1581 1582 1584 1583 1582 1580 1578 1575 1572 1569 1566 1563 1558 1554 1551 1548 1544 1543 1540 1537 1534 1532 1529 1528 1526 1525 1522 1520 1518 1517 1515 1514 1514 1514 1512 1513
1530 1533 1559 1574 1576 1575 1574 1574 1569 1566 1570 1570 1572 1576 1584 1585 1583 1583 1580 1577 1575 1571 1567 1564 1560 1556 1551 1547 1544 1541 1538 1535 1533 1531 1527 1527 1525 1524 1520 1518 1517 1516 1514 1512 1512 1510 1510 1509 1509
1530 1538 1558 1570 1574 1576 1574 1571 1572 1574 1573 1573 1575 1578 1588 1585 1583 1581 1580 1577 1574 1570 1566 1562 1559 1554 1548 1544 1541 1537 1534 1530 1528 1525 1523 1520 1519 1515 1516 1514 1513 1511 1510 1508 1507 1508 1507 1506 1506
1532 1538 1559 1568 1573 1577 1574 1576 1580 1575 1579 1578 1579 1585 1588 1587 1584 1582 1578 1575 1571 1566 1563 1558 1555 1549 1545 1540 1537 1533 1530 1527 1524 1520 1518 1516 1513 1511 1510 1509 1508 1507 1505 1503 1503 1503 1503 1502 1501
1534 1555 1570 1565 1567 1573 1574 1576 1580 1583 1581 1582 1584 1587 1588 1586 1583 1578 1574 1571 1567 1563 1559 1555 1552 1546 1543 1537 1534 1528 1525 1521 1518 1514 1512 1510 1507 1505 1504 1503 1501 1501 1500 1500 1499 1497 1498 1497 1497
1536 1560 1564 1562 1566 1573 1574 1575 1580 1585 1585 1586 1586 1587 1587 1584 1581 1577 1573 1568 1564 1560 1555 1553 1549 1543 1539 1533 1529 1525 1520 1516 1512 1508 1506 1503 1500 1499 1497 1496 1496 1495 1493 1493 1493 1491 1492 1492 1491
1548 1562 1564 1568 1569 1571 1576 1577 1582 1583 1588 1589 1588 1588 1585 1583 1579 1576 1573 1570 1565 1561 1556 1551 1544 1539 1534 1530 1525 1521 1516 1511 1506 1502 1501 1498 1495 1493 1492 1489 1490 1489 1488 1486 1488 1487 1486 1486 1486
1557 1564 1564 1570 1572 1572 1576 1582 1585 1586 1590 1590 1589 1588 1585 1583 1581 1577 1572 1567 1562 1557 1552 1546 1540 1535 1529 1525 1519 1514 1510 1506 1501 1498 1495 1491 1489 1487 1485 1483 1481 1482 1481 1481 1480 1481 1481 1481 1480
1557 1565 1567 1570 1571 1575 1579 1583 1585 1590 1591 1591 1590 1589 1586 1584 1580 1576 1572 1566 1560 1554 1548 1541 1535 1528 1521 1518 1512 1507 1503 1498 1495 1492 1489 1486 1483 1479 1479 1475 1475 1475 1475 1475 1474 1475 1475 1475 1476
1559 1565 1572 1573 1574 1580 1580 1587 1587 1594 1593 1592 1591 1589 1587 1584 1579 1574 1569 1562 1556 1549 1541 1533 1526 1520 1515 1509 1503 1498 1494 1490 1487 1484 1482 1480 1478 1474 1471 1469 1469 1469 1469 1469 1468 1470 1470 1470 1470
1563 1571 1573 1575 1575 1581 1576 1591 1594 1594 1593 1593 1593 1590 1587 1583 1578 1571 1565 1557 1551 1543 1534 1528 1521 1515 1509 1503 1497 1491 1486 1482 1479 1475 1473 1472 1470 1467 1465 1464 1461 1461 1462 1462 1462 1462 1464 1464 1464
1565 1569 1576 1573 1575 1577 1578 1599 1596 1596 1595 1595 1593 1588 1583 1579 1573 1567 1560 1553 1545 1538 1530 1525 1517 1509 1502 1496 1489 1483 1478 1475 1471 1469 1466 1464 1463 1460 1458 1454 1453 1454 1455 1453 1454 1454 1456 1457 1457
1568 1571 1571 1574 1574 1577 1584 1598 1598 1597 1596 1594 1590 1585 1581 1575 1569 1563 1557 1549 1541 1534 1527 1518 1511 1501 1495 1488 1481 1475 1471 1468 1464 1461 1457 1455 1454 1452 1450 1448 1445 1445 1443 1445 1447 1448 1449 1450 1451
1573 1571 1570 1573 1578 1581 1589 1597 1596 1596 1594 1593 1588 1585 1579 1573 1567 1560 1554 1546 1538 1531 1522 1513 1503 1497 1488 1481 1474 1469 1464 1460 1456 1452 1449 1446 1443 1440 1438 1436 1436 1436 1436 1436 1438 1440 1441 1443 1445
1568 1571 1575 1573 1578 1585 1593 1596 1595 1596 1593 1591 1589 1582 1579 1572 1566 1560 1552 1545 1535 1527 1517 1507 1497 1491 1484 1476 1469 1463 1458 1453 1448 1443 1439 1436 1433 1430 1427 1425 1425 1426 1426 1427 1429 1431 1433 1434 1436
1565 1571 1579 1575 1579 1585 1596 1596 1595 1596 1596 1594 1589 1582 1576 1570 1563 1556 1548 1540 1532 1523 1513 1504 1496 1489 1482 1475 1468 1461 1453 1447 1441 1436 1432 1428 1424 1421 1418 1416 1416 1417 1418 1418 1420 1422 1424 1426 1429
1571 1575 1578 1580 1583 1586 1593 1600 1601 1599 1596 1592 1587 1583 1577 1570 1561 1553 1544 1536 1528 1520 1510 1503 1496 1488 1480 1473 1464 1456 1449 1442 1435 1429 1425 1421 1417 1413 1409 1406 1405 1406 1407 1409 1412 1413 1416 1419 1422
1577 1570 1571 1572 1579 1587 1585 1601 1603 1603 1597 1592 1588 1580 1574 1568 1561 1553 1544 1536 1526 1518 1512 1504 1496 1487 1479 1470 1461 1453 1445 1437 1430 1423 1417 1412 1409 1405 1402 1398 1396 1396 1398 1399 1402 1406 1408 1411 1414
1574 1567 1566 1566 1574 1576 1585 1606 1613 1603 1599 1592 1587 1582 1575 1569 1562 1553 1544 1537 1528 1518 1510 1502 1494 1485 1477 1467 1459 1450 1442 1434 1424 1418 1411 1405 1401 1397 1393 1390 1388 1387 1388 1390 1393 1397 1400 1403 1407
1570 1567 1567 1572 1577 1587 1588 1591 1619 1610 1605 1596 1589 1581 1574 1566 1558 1552 1545 1535 1525 1515 1507 1498 1491 1483 1474 1466 1457 1448 1440 1429 1420 1412 1405 1398 1393 1388 1384 1381 1380 1379 1379 1381 1385 1389 1393 1396 1399
1577 1581 1590 1578 1589 1586 1593 1605 1618 1607 1603 1599 1591 1582 1575 1568 1559 1550 1540 1529 1520 1512 1504 1497 1489 1480 1472 1464 1455 1446 1438 1428 1418 1409 1401 1393 1387 1381 1376 1372 1371 1371 1372 1374 1377 1381 1385 1390 1393
1592 1598 1609 1590 1600 1603 1594 1612 1611 1605 1603 1598 1591 1583 1576 1568 1561 1553 1543 1533 1523 1515 1505 1497 1488 1479 1472 1462 1454 1446 1436 1425 1416 1407 1397 1389 1382 1376 1369 1364 1364 1366 1367 1368 1371 1375 1378 1383 1386
1596 1608 1603 1607 1612 1620 1609 1607 1604 1600 1599 1595 1587 1580 1573 1566 1558 1549 1541 1533 1523 1513 1506 1498 1488 1480 1472 1462 1453 1443 1433 1423 1413 1402 1393 1385 1379 1373 1365 1360 1362 1362 1363 1365 1367 1370 1373 1376 1380
1602 1605 1608 1620 1638 1621 1612 1612 1618 1608 1601 1593 1585 1579 1572 1565 1557 1550 1541 1531 1523 1515 1507 1498 1489 1480 1471 1462 1453 1443 1434 1424 1413 1401 1391 1384 1378 1373 1367 1363 1362 1361 1362 1362 1365 1366 1369 1371 1374
1613 1615 1619 1625 1632 1649 1643 1612 1611 1612 1603 1594 1589 1583 1577 1567 1559 1550 1542 1533 1526 1517 1507 1497 1488 1479 1470 1461 1452 1443 1434 1425 1414 1403 1395 1387 1380 1375 1370 1366 1363 1362 1362 1362 1362 1364 1366 1368 1369
1614 1619 1627 1642 1636 1644 1653 1626 1610 1607 1601 1598 1591 1586 1578 1571 1562 1553 1543 1533 1524 1514 1505 1497 1489 1481 1473 1464 1454 1445 1436 1426 1416 1406 1397 1389 1382 1378 1373 1369 1367 1365 1363 1362 1362 1362 1363 1364 1366